Kupiškis

Lithuania     55˚49′57″N   24˚59′23″E
temp.,
°C
wind,
m/s
gust,
m/s
humid.,
%
clouds,
%
prec.,
mm/h
press.,
hPa
HPBL,
m
28 november, sat
sat2823:00−1˚nnw379263 0.0 1016336
02:00−1˚n369355 0.0 1017258
05:00−1˚n488947 0.0 1018499
08:00nnw379273 0.0 1019368
11:00+1˚nne4896100 0.2 1020507
14:00+1˚nne5895100 0.3 1020596
17:00+1˚ne489796 0.2 1021541
20:00+1˚ne598998 0.3 1022691
29 november, sun
sun2923:00−1˚ene388880 0.1 1023466
02:00−1˚ne389173 0.1 1024324
05:00−1˚ene489237 0.0 1023408
08:00ene478665 0.0 1024543
11:00ne468495 0.0 1023528
14:00ne478698 0.0 1023627
17:00−1˚nne4796100 0.4 1022443
20:00−1˚nne3696100 1.3 1022424
30 november, mon
mon3023:00−2˚nne249789 0.3 1021225
02:00−2˚n119890 0.4 102263
05:00−2˚wnw119780 0.1 102152
08:00−3˚wsw129877 0.1 102232
11:00−1˚sw239181 0.1 1022308
14:00sw358590 0.1 1023542
17:00−1˚ssw369498 0.1 1022295
20:00−2˚ssw379695 0.1 1023354
1 december, tue
tue123:00−1˚sw489497 0.1 1023490
02:00−1˚ssw599196 0.1 1023461
05:00−2˚ssw5109169 0.0 1023362
08:00−2˚ssw599275 0.0 1024422
11:00−1˚ssw478796 0.0 1025534
14:00ssw468298 0.1 1026717
17:00s3787100 0.0 1027439
20:00s4786100 0.1 1028440
2 december, wed
wed223:00−1˚s3681100 0.1 1029437
02:00−3˚s378999 0.1 1029351
05:00−3˚sse369275 0.0 1029242
08:00−3˚sse378882 0.0 1029285
11:00−2˚sse368399 0.0 1029335
14:00−1˚sse368188 0.0 1028377
17:00−3˚se379090 0.0 1028221
20:00−3˚sse378895 0.0 1028259